Location: Newark
(52.8300°N, 8.0000°E)
Time: 06:24:49
(UTC+00:00)

STARLINK-1066 - Pass Details

Date: 31 January 2020
Orbit: 348 x 351 km, 53.0° (Epoch: 24 February)

Event Time Altitude Azimuth Distance (km) Brightness Sun altitude
Rises 18:22:17 0° 279° (W) 2,181 8.2 -19.9°
Reaches altitude 10° 18:25:11 10° 247° (WSW) 1,332 6.6 -20.3°
Maximum altitude 18:26:30 12° 221° (SW) 1,201 5.9 -20.5°
Drops below altitude 10° 18:27:49 10° 194° (SSW) 1,327 5.8 -20.7°
Enters shadow 18:28:17 - 187° (S) 1,425 5.8 -20.8°
